Location: Seattle
(47.6064°N, 122.3308°W)
Time: 05:17:40
(UTC-08:00)

S-56A Canister/Altair - Pass Details

Date: 27 November 2020
Orbit: 633 x 2499 km, 38.9° (Epoch: 23 January)

Event Time Altitude Azimuth Distance (km) Brightness Sun altitude
Rises 00:53:44 0° 269° (W) 3,938 - -61.3°
Reaches altitude 10° 00:57:28 10° 255° (WSW) 2,669 - -61.0°
Maximum altitude 01:01:49 21° 209° (SSW) 1,735 - -60.6°
Drops below altitude 10° 01:05:25 10° 161° (SSE) 2,150 - -60.3°
Sets 01:08:04 0° 143° (SE) 2,962 - -60.0°
